Wetbulb
37.38 32.78 29.93 33.92 35.52 36.87 35.21 33.52 31.75 35.08 38.77 36.41 35.49 37.15 39.52 41.53 41.62 41.35 42.18 43.63 44.37 46.05 49.11 51.31 54.29 56.60 57.98 60.16 60.60 61.05 60.94 61.51 62.61 65.82 66.28 66.74 67.31 68.58 68.95 68.73 68.78 68.13 67.64 67.08
34.06 29.75 36.60 39.04 37.97 36.03 34.25 31.25 31.26 35.65 40.11 38.57 37.14 36.90 40.14 39.71 40.29 41.14 41.84 42.52 43.57 44.58 47.13 49.31 51.86 53.45 54.97 57.05 59.27 60.86 60.74 61.88 61.47 66.58 67.50 67.04 67.66 68.18 69.12 69.44 68.34 68.77 68.52 67.48
31.20 35.61 39.82 38.28 35.48 35.73 33.55 32.45 33.24 33.53 37.82 38.18 35.85 34.68 36.33 39.48 40.42 41.99 42.24 42.63 42.79 43.43 44.46 46.89 48.84 49.86 53.07 53.58 56.20 58.93 60.21 61.22 62.41 66.77 66.84 63.25 64.12 63.37 64.71 64.69 66.17 67.44 67.90 68.54
33.99 38.17 37.73 35.48 34.71 36.55 30.43 38.22 37.40 35.72 32.52 25.99 35.82 25.22 34.39 37.89 38.49 39.39 40.49 40.54 41.21 42.35 43.57 44.81 45.73 46.80 48.03 51.03 53.17 56.59 59.09 59.43 61.78 63.78 66.89 66.98 66.80 66.23 65.31 66.65 66.33 64.78 67.04 67.79
34.35 35.44 34.95 33.26 35.75 38.64 33.94 39.19 35.98 35.36 31.47 28.17 30.29 25.80 32.66 35.65 35.49 38.23 40.59 41.52 42.87 43.75 44.86 45.59 46.90 48.22 48.91 50.19 51.30 54.26 58.03 60.14 61.24 64.67 67.87 67.35 66.59 63.28 60.02 60.17 62.73 62.89 64.52 67.00
36.16 39.42 38.42 37.30 39.94 39.22 40.05 35.33 32.86 31.76 28.70 21.67 28.74 27.80 28.91 30.74 33.84 37.11 41.34 43.05 44.50 44.49 45.61 46.82 48.31 49.88 50.33 51.51 48.93 52.05 57.95 60.16 61.27 64.78 66.15 66.52 66.02 61.50 59.74 60.60 60.74 61.52 63.40 65.30
33.84 34.08 38.65 40.99 34.50 36.54 34.58 27.34 20.07 19.26 19.99 21.39 30.59 27.57 29.68 36.68 39.78 40.65 41.00 42.05 43.05 43.63 44.12 45.21 46.23 48.15 49.90 50.69 52.65 49.18 54.64 58.85 60.09 61.84 64.39 64.06 64.05 62.74 61.71 61.08 61.90 62.05 63.35 64.25
25.12 25.61 34.37 40.21 35.57 31.60 30.28 28.59 19.26 14.02 18.04 21.79 30.57 24.18 29.27 39.82 42.06 42.86 43.44 42.73 43.46 43.23 42.52 43.99 45.83 47.48 49.05 51.05 53.48 50.61 50.37 56.33 59.12 61.14 62.31 63.36 62.80 62.59 61.43 61.10 62.92 63.76 64.90 65.17
26.83 29.00 38.69 39.61 38.98 36.53 30.73 27.33 31.19 21.55 25.74 21.81 25.39 30.24 35.09 39.44 40.20 41.04 40.87 41.89 41.13 41.78 42.97 43.74 45.44 46.90 48.51 49.37 51.24 53.26 53.05 51.25 56.89 59.81 61.56 60.73 60.64 60.10 61.01 62.24 64.16 64.83 64.79 65.96
32.86 26.82 35.87 38.37 38.83 38.28 33.57 34.96 23.91 24.44 19.53 18.71 23.80 26.00 27.89 33.10 35.91 39.52 39.87 39.67 40.38 41.81 43.75 45.46 46.12 47.01 48.73 48.83 50.66 53.37 55.09 53.53 52.91 58.05 59.83 59.71 60.77 61.40 62.38 64.28 64.62 64.68 64.33 65.99
33.66 30.07 31.14 34.88 32.61 30.20 29.76 28.08 29.92 29.23 27.67 20.79 20.25 24.25 33.94 35.13 37.43 37.89 39.49 40.49 39.69 41.69 43.97 45.15 46.18 47.58 47.77 48.29 50.15 53.00 54.24 55.20 51.08 54.28 57.18 59.23 61.17 63.20 64.29 64.80 64.75 64.81 65.42 65.58
35.23 30.62 27.06 30.45 37.47 38.35 34.60 31.52 32.33 25.79 23.63 27.40 26.47 25.99 39.10 38.98 37.82 38.25 39.45 41.13 41.45 43.32 44.32 45.15 45.92 47.44 47.90 47.77 48.89 51.24 54.20 55.53 51.84 53.43 57.41 61.04 63.10 64.75 64.77 64.70 64.96 64.86 65.20 65.63
35.20 28.42 26.05 26.08 30.07 33.96 32.41 35.18 35.52 33.88 31.72 26.77 21.92 25.27 38.13 37.74 38.90 40.24 39.85 41.67 42.41 43.09 44.50 45.45 45.74 46.53 47.24 47.84 49.20 50.92 55.14 59.06 56.64 59.31 60.98 63.38 64.34 64.79 64.88 64.63 64.65 65.09 65.49 65.69
39.23 30.74 27.83 25.04 27.64 31.68 30.52 33.03 35.39 33.07 28.26 26.52 27.26 28.98 34.48 36.88 37.32 39.11 40.87 41.57 42.23 42.99 46.99 46.34 46.06 46.18 46.42 47.88 49.67 51.62 55.71 61.70 61.98 62.91 63.94 65.09 64.99 65.00 65.01 65.28 65.24 65.60 66.30 66.06
35.85 31.02 32.41 32.99 34.08 34.27 33.65 33.44 33.89 32.04 31.72 28.66 30.23 30.44 34.24 36.74 36.71 39.43 41.93 43.06 43.79 46.60 48.05 48.24 49.87 48.62 49.56 49.04 51.44 53.10 58.19 63.61 64.29 64.88 65.26 65.92 66.26 66.14 66.07 66.17 66.03 66.62 66.22 66.15
38.07 31.03 32.35 30.81 33.73 33.27 31.68 34.37 34.75 34.35 34.22 33.45 33.60 32.81 38.33 38.46 39.64 39.61 39.87 41.28 41.97 47.28 47.47 47.29 48.92 53.07 55.18 53.95 57.99 56.62 60.04 64.79 65.20 64.64 65.07 66.13 65.71 65.94 65.71 66.06 65.97 65.64 63.44 62.78
30.48 31.74 32.06 26.45 33.12 32.23 28.11 32.84 34.92 35.47 37.59 35.73 31.30 35.04 38.21 37.11 38.19 38.30 38.73 40.07 42.64 44.29 45.30 46.08 47.12 50.79 54.99 56.72 57.98 58.53 60.21 63.58 64.45 64.68 65.44 65.45 65.61 64.33 64.08 63.77 63.10 61.98 61.29 60.67
30.84 33.23 33.56 27.13 27.42 20.92 31.42 39.10 38.50 35.87 36.96 38.15 38.12 38.66 39.31 39.06 39.27 40.37 41.13 42.26 42.82 43.82 45.18 46.32 47.28 50.19 55.07 57.94 58.72 58.83 59.52 60.28 63.98 64.22 64.39 64.31 63.83 63.17 62.17 62.01 61.11 60.79 60.35 59.34
34.57 32.66 31.37 24.44 24.18 28.91 32.64 37.53 36.11 33.47 33.10 37.98 37.57 38.93 39.66 39.29 39.99 38.62 42.91 43.70 43.40 44.21 45.88 47.02 48.39 50.93 56.62 58.02 58.79 58.88 57.91 57.93 59.88 63.59 63.63 63.62 62.57 61.64 61.46 60.31 60.20 60.21 59.13 57.98
38.11 38.55 32.88 28.00 24.15 18.05 29.10 39.30 41.15 39.14 28.76 39.74 38.68 37.21 37.32 38.34 32.64 36.39 41.97 43.56 44.53 46.07 48.04 47.72 48.66 53.54 57.12 57.90 58.12 58.04 57.28 58.19 59.37 63.26 63.53 62.24 62.18 60.91 60.49 60.11 60.60 59.52 59.75 58.82
31.39 31.24 29.27 28.80 27.60 28.13 36.42 40.27 41.18 27.99 28.13 37.83 38.08 38.44 39.12 37.44 39.22 41.88 43.67 44.86 46.43 47.99 48.61 49.13 51.80 55.70 56.32 57.78 58.97 57.68 57.63 60.81 63.32 63.45 62.35 61.35 60.66 60.53 60.38 59.59 60.24 60.08 59.57 57.96
25.50 25.56 28.91 30.78 25.63 20.29 40.41 38.84 33.57 36.44 41.29 40.29 38.98 40.06 40.29 41.74 42.25 42.64 43.89 44.97 46.47 47.36 49.09 50.87 52.51 55.90 57.19 57.76 58.15 57.19 58.56 61.91 61.69 61.34 60.84 60.33 60.46 60.97 60.41 59.80 60.66 60.19 58.26 56.20
27.24 31.76 30.50 31.23 27.99 38.12 41.79 40.41 42.81 42.60 40.20 40.24 40.99 42.68 42.85 41.41 41.99 43.41 44.23 45.67 46.51 47.54 48.72 51.29 53.52 56.18 57.10 57.83 58.76 56.90 60.22 60.96 60.38 59.61 58.76 59.11 60.20 60.36 60.75 60.41 59.80 58.71 57.72 57.70
34.33 35.02 31.99 33.99 38.25 39.63 41.45 43.20 41.83 41.87 40.32 41.91 43.38 43.29 42.48 41.74 43.49 44.26 44.92 45.45 46.66 48.49 49.91 52.11 54.18 56.18 56.08 57.31 58.84 60.19 60.16 60.11 59.20 58.61 58.42 58.88 59.10 59.92 60.40 60.73 60.08 58.35 58.26 57.32
34.86 36.49 35.97 36.25 38.52 40.80 41.95 42.07 40.21 40.21 41.32 42.11 43.85 42.86 42.81 43.75 43.73 44.54 44.95 46.17 47.57 49.23 51.15 53.61 55.13 58.00 58.49 59.96 58.93 59.77 60.38 60.05 59.05 58.68 58.96 57.74 58.27 58.75 54.78 50.02 54.37 58.29 58.27 57.56
36.36 36.98 34.96 34.33 40.95 40.89 41.36 42.86 40.03 39.11 40.43 43.19 42.24 42.27 43.88 44.29 43.84 44.77 44.93 46.90 48.72 50.58 53.15 55.13 58.22 58.05 57.97 59.88 59.39 59.74 61.06 60.31 59.36 58.37 57.93 56.96 56.20 55.48 53.58 53.34 51.76 41.62 43.81 45.28
MSLP
1009.76 1010.40 1010.83 1010.92 1011.03 1010.94 1011.07 1010.93 1010.65 1009.95 1009.36 1009.02 1008.25 1006.96 1006.48 1005.85 1005.27 1005.08 1004.61 1004.22 1003.76 1003.23 1002.69 1002.81 1002.52 1002.11 1001.97 1001.65 1001.50 1001.43 1001.69 1001.71 1001.97 1002.53 1002.56 1002.78 1002.36 1002.74 1002.54 1003.42 1004.04 1004.97 1004.90 1005.66
1010.47 1010.48 1010.30 1010.30 1010.39 1010.78 1010.88 1011.03 1011.02 1010.34 1009.70 1009.11 1008.34 1006.51 1006.17 1005.98 1005.48 1005.14 1004.83 1004.48 1003.93 1003.23 1002.44 1002.07 1002.34 1002.04 1001.85 1001.63 1001.40 1001.22 1001.17 1001.02 1001.28 1001.67 1001.81 1001.86 1001.87 1002.30 1001.91 1002.90 1003.81 1004.30 1004.36 1005.10
1010.53 1010.14 1009.88 1010.13 1010.25 1010.49 1010.78 1011.06 1011.20 1011.17 1010.45 1009.84 1008.91 1006.15 1006.22 1005.72 1005.47 1005.18 1004.84 1004.46 1004.11 1003.67 1002.93 1002.16 1001.74 1001.71 1001.68 1001.70 1001.34 1000.93 1000.61 1000.19 1000.22 1000.43 1001.36 1002.08 1002.24 1002.61 1002.89 1003.08 1003.20 1003.14 1003.76 1004.13
1010.24 1009.70 1009.79 1009.93 1010.24 1010.54 1010.85 1011.04 1011.37 1011.56 1011.53 1011.29 1010.46 1007.60 1006.08 1005.83 1005.62 1005.50 1005.15 1004.77 1004.40 1004.02 1003.62 1003.14 1002.52 1001.88 1001.53 1000.77 1000.59 1000.34 1000.05 999.54 998.79 999.11 1000.15 1000.92 1001.29 1001.73 1001.62 1001.60 1001.74 1002.52 1003.05 1003.32
1009.89 1009.73 1009.76 1009.86 1009.96 1010.27 1010.87 1011.13 1011.59 1011.99 1012.16 1011.76 1011.47 1010.67 1004.18 1005.96 1005.83 1005.48 1005.03 1004.85 1004.83 1004.76 1004.29 1003.60 1002.96 1002.31 1001.51 1000.91 1000.11 999.70 999.48 998.98 998.42 998.87 999.24 999.79 1000.25 1000.70 1001.12 1001.72 1002.11 1002.60 1002.79 1002.98
1009.78 1009.50 1009.55 1009.69 1009.86 1010.23 1010.84 1011.53 1012.19 1012.72 1013.13 1012.61 1011.43 1011.05 1005.99 1006.41 1005.88 1005.39 1005.42 1005.10 1004.76 1004.50 1004.08 1003.47 1002.93 1002.16 1001.27 1000.33 999.68 999.04 999.01 998.65 998.36 998.18 998.62 998.90 999.19 999.88 1000.85 1001.51 1002.26 1002.46 1002.75 1002.92
1010.10 1009.88 1009.72 1009.98 1010.29 1010.68 1011.36 1012.58 1013.77 1014.02 1014.22 1013.12 1011.68 1011.00 1007.90 1006.67 1006.08 1005.68 1005.41 1005.03 1004.56 1004.30 1003.99 1003.48 1002.89 1001.96 1001.03 1000.40 999.61 999.03 998.51 998.23 998.22 997.50 998.02 998.17 998.52 999.12 999.83 1000.68 1001.31 1001.96 1002.22 1002.39
1011.08 1010.91 1010.32 1010.39 1010.61 1011.11 1011.75 1012.96 1014.48 1014.60 1014.34 1013.53 1012.22 1010.30 1007.83 1006.56 1006.27 1005.63 1005.49 1005.10 1004.47 1003.72 1003.55 1003.26 1002.53 1001.86 1001.02 1000.21 999.70 999.10 998.61 998.02 997.57 997.91 997.23 997.47 997.61 998.48 999.11 999.75 1000.35 1000.71 1000.95 1001.28
1012.09 1011.78 1010.84 1010.45 1010.58 1011.24 1011.87 1012.88 1013.25 1014.32 1014.06 1013.53 1011.72 1009.51 1007.54 1006.19 1005.84 1005.38 1005.16 1004.99 1004.50 1003.71 1002.98 1002.70 1002.04 1001.45 1000.59 999.95 999.32 998.99 998.30 997.71 996.99 996.88 997.09 996.80 997.15 997.93 998.60 998.95 999.50 999.85 1000.32 1000.91
1012.46 1012.45 1011.43 1010.90 1010.91 1010.97 1011.45 1012.23 1013.54 1014.53 1014.40 1013.09 1010.84 1009.36 1007.64 1006.33 1005.55 1004.97 1004.62 1004.34 1003.98 1003.34 1002.62 1001.63 1001.43 1000.87 1000.11 999.54 998.85 998.36 997.74 997.09 996.21 996.15 996.22 996.39 996.65 997.20 997.82 998.44 998.97 999.49 1000.09 1000.56
1012.71 1013.10 1012.48 1011.82 1011.26 1011.22 1011.71 1012.28 1013.25 1014.13 1014.02 1012.93 1011.05 1008.18 1006.18 1005.57 1005.19 1004.99 1004.31 1003.86 1003.88 1003.14 1002.05 1001.36 1000.63 1000.17 999.71 998.84 998.15 997.51 996.67 996.03 995.41 995.17 995.40 995.84 996.21 996.68 997.27 997.91 998.53 999.15 999.64 1000.48
1013.19 1013.57 1013.24 1012.05 1010.79 1011.13 1011.41 1011.99 1012.60 1013.44 1013.29 1012.29 1010.83 1006.88 1005.96 1004.99 1004.81 1004.85 1003.91 1003.57 1002.97 1002.21 1001.37 1000.60 1000.01 999.48 998.96 998.15 997.30 996.76 995.55 994.91 994.36 994.13 994.55 995.15 995.67 996.33 997.11 997.77 998.17 998.93 999.56 1000.41
1013.13 1013.73 1013.58 1012.27 1011.60 1011.23 1011.39 1011.53 1011.94 1012.43 1012.55 1011.37 1010.51 1006.57 1005.11 1004.84 1004.56 1003.99 1003.83 1002.84 1002.08 1001.61 1000.56 999.87 999.50 998.77 998.33 997.54 996.57 995.78 994.64 994.06 993.52 993.65 993.94 994.81 995.56 996.03 996.77 997.38 997.94 998.72 999.63 1000.11
1013.17 1013.82 1013.97 1013.38 1012.23 1011.98 1011.44 1011.29 1011.50 1011.67 1011.15 1009.99 1008.96 1006.96 1005.54 1005.46 1004.89 1004.14 1003.80 1002.66 1001.79 1001.28 1000.40 999.53 998.77 997.78 997.09 996.30 995.46 994.58 993.59 993.01 993.10 993.33 993.48 994.50 994.99 995.66 996.42 996.99 997.74 998.50 999.17 999.88
1013.34 1014.01 1013.85 1012.99 1012.19 1011.53 1010.70 1010.07 1009.90 1010.04 1009.71 1009.40 1008.21 1006.65 1005.59 1005.16 1004.86 1004.49 1003.97 1002.95 1001.95 1001.46 1000.50 1000.17 999.02 997.33 996.09 995.09 994.28 993.57 992.98 992.61 992.81 992.96 993.39 994.08 994.63 995.44 996.22 997.03 997.70 998.22 999.07 999.84
1013.97 1013.97 1013.67 1012.25 1011.16 1010.66 1009.79 1008.81 1008.45 1008.22 1007.95 1007.64 1006.99 1005.90 1005.37 1005.03 1004.81 1004.57 1004.11 1003.07 1002.05 1001.44 1000.91 1000.15 998.81 997.40 995.65 994.73 994.10 992.81 992.68 992.32 992.57 993.27 993.74 993.65 994.71 995.53 996.29 996.88 997.50 998.40 999.23 999.88
1014.11 1014.10 1013.66 1012.01 1010.92 1010.20 1008.92 1007.70 1007.54 1007.43 1007.04 1007.21 1006.72 1005.66 1005.38 1004.93 1004.87 1004.73 1003.78 1002.75 1002.04 1001.47 1000.59 999.99 998.76 996.97 995.76 994.69 993.45 992.84 992.60 992.03 992.49 993.20 993.91 994.23 994.63 995.47 996.28 997.01 997.88 998.76 999.51 1000.23
1013.40 1013.89 1013.62 1012.17 1011.22 1010.11 1007.70 1007.31 1007.32 1007.32 1006.85 1006.09 1005.42 1005.26 1005.64 1005.39 1004.94 1004.31 1003.46 1002.39 1001.77 1000.81 999.96 998.88 997.88 996.74 994.89 993.29 992.69 992.65 992.90 992.38 992.24 992.98 993.91 994.50 994.73 995.40 996.45 997.26 998.17 999.13 999.82 1000.67
1012.59 1013.32 1012.83 1012.24 1011.64 1009.60 1007.68 1007.29 1007.71 1007.84 1006.66 1006.25 1006.13 1006.22 1005.71 1005.07 1004.24 1003.35 1002.72 1002.21 1001.12 1000.28 999.31 998.24 997.20 996.18 994.80 993.19 992.15 993.43 993.14 992.63 991.80 992.98 994.13 994.47 994.39 995.30 996.32 997.39 998.73 999.57 1000.29 1001.26
1012.46 1012.46 1012.74 1012.16 1011.59 1010.11 1008.07 1007.69 1007.90 1008.24 1006.74 1006.34 1006.24 1005.78 1005.24 1004.56 1003.17 1002.12 1001.99 1001.48 1000.07 999.10 998.08 997.40 996.55 995.54 994.73 994.24 993.53 993.17 993.05 992.77 992.52 993.77 994.18 994.06 994.44 995.51 996.80 997.73 998.87 999.86 1000.58 1001.60
1012.42 1012.31 1012.10 1011.58 1010.85 1009.41 1007.65 1007.67 1008.03 1008.24 1006.89 1006.30 1005.74 1005.42 1004.79 1003.88 1003.18 1001.64 1001.25 1000.32 999.26 998.22 996.91 996.24 995.75 994.47 993.42 993.03 992.79 992.72 992.56 992.04 992.92 993.66 993.59 994.05 994.94 995.97 997.15 998.17 999.32 1000.33 1001.18 1002.08
1012.30 1012.23 1011.75 1011.14 1010.54 1009.09 1007.71 1007.88 1007.84 1006.84 1006.27 1005.96 1005.49 1004.92 1004.08 1003.10 1002.24 1001.08 1000.30 999.30 998.21 997.38 996.38 995.50 994.71 993.32 992.82 992.48 992.84 992.37 992.19 992.74 992.43 992.67 993.51 994.49 995.53 996.40 997.48 998.66 999.92 1000.69 1001.59 1002.61
1012.04 1011.74 1011.82 1011.01 1008.66 1007.60 1007.18 1007.43 1006.94 1006.38 1006.48 1005.09 1004.81 1004.10 1003.65 1002.84 1001.69 1000.66 999.65 998.59 997.87 997.19 996.31 995.29 994.00 992.36 991.98 992.33 992.47 990.90 991.02 991.27 992.18 993.07 994.03 995.10 995.84 996.84 997.97 999.23 1000.35 1001.30 1002.05 1002.83
1011.59 1011.15 1011.10 1010.42 1008.21 1007.87 1007.16 1006.37 1006.43 1005.84 1005.92 1004.78 1004.02 1003.47 1003.02 1002.26 1001.27 1000.01 998.88 998.15 997.47 996.50 995.47 994.48 993.73 992.75 991.88 991.15 991.16 991.06 991.38 991.92 992.41 993.59 994.72 995.80 996.50 997.53 998.71 999.81 1000.66 1001.59 1002.42 1003.12
1011.12 1010.57 1009.76 1009.02 1007.86 1007.27 1006.33 1005.84 1005.65 1005.28 1004.85 1004.79 1004.19 1003.53 1002.51 1001.69 1000.64 999.49 998.31 997.86 997.10 995.89 994.69 993.63 992.22 991.46 990.82 990.54 990.63 991.20 991.33 991.76 992.93 994.03 995.30 996.58 997.25 998.33 999.81 1001.02 1001.80 1002.12 1002.49 1002.56
1009.96 1009.10 1008.70 1007.82 1007.30 1006.91 1005.85 1005.36 1004.94 1004.92 1004.55 1004.44 1003.99 1003.07 1002.41 1001.56 1000.39 999.38 998.11 997.47 996.18 995.08 994.00 993.24 991.90 991.64 991.53 991.53 991.45 991.50 991.62 992.22 993.42 994.92 996.16 997.10 998.09 999.18 1000.33 1001.34 1002.43 1002.95 1003.02 1003.09
Wind_Speed
3 5 3 6 8 7 4 4 4 5 5 6 7 17 12 7 7 8 8 9 8 10 8 4 8 10 9 8 9 11 12 13 6 2 3 4 5 12 10 9 14 12 10 11
6 2 5 4 3 3 1 1 3 4 6 9 13 22 15 5 6 6 8 8 9 9 12 12 4 7 8 12 12 14 14 16 8 6 5 4 6 6 7 6 7 9 10 9
4 7 4 2 4 3 2 3 3 5 6 5 9 21 8 3 5 8 7 8 8 8 12 15 14 8 7 10 12 15 16 17 15 12 4 2 4 2 2 3 5 9 9 10
4 4 2 4 1 3 3 1 3 6 6 4 4 18 17 13 10 6 8 8 9 11 11 10 13 13 10 12 9 13 14 13 12 14 14 15 14 13 8 9 6 5 8 8
9 3 5 1 3 3 6 2 3 3 5 3 3 4 19 6 12 14 10 6 5 7 9 10 13 12 14 11 11 8 13 14 14 12 16 14 16 7 3 2 5 5 5 7
8 3 5 5 3 1 1 3 5 4 1 3 7 7 16 3 6 8 4 7 8 7 9 11 10 12 10 12 10 9 8 13 13 12 15 18 19 10 6 4 5 5 4 4
1 0 1 2 1 4 5 6 5 5 2 6 4 4 11 16 16 5 5 9 9 7 8 10 12 13 13 13 15 9 8 10 10 13 14 14 14 13 13 10 7 7 4 4
3 5 3 0 4 5 4 8 6 6 4 11 6 8 9 5 7 6 8 10 11 11 7 10 12 11 10 11 12 11 9 11 8 11 14 15 16 11 9 10 7 6 6 5
2 4 6 6 2 4 2 4 5 3 3 1 6 7 9 8 8 6 9 7 10 12 11 10 12 12 11 9 12 12 11 13 13 12 13 12 9 8 9 8 7 5 5 5
4 4 6 2 2 5 6 5 2 2 4 6 6 7 11 8 10 10 11 9 11 11 15 16 11 14 11 8 10 13 10 13 14 13 11 10 12 11 8 8 8 8 7 8
2 4 5 2 5 6 3 2 2 3 3 4 7 8 7 10 9 10 13 11 9 16 16 16 14 14 11 9 10 14 12 9 11 11 9 8 7 8 8 8 8 8 9 9
2 3 4 8 15 7 6 6 5 4 4 5 3 13 8 12 10 6 15 13 13 16 16 13 14 13 14 13 11 13 11 9 10 11 8 8 8 10 9 9 9 9 10 9
4 1 5 7 3 4 3 3 5 4 4 10 5 13 2 6 15 17 16 19 16 10 10 13 14 12 13 13 11 11 10 8 8 8 9 9 10 11 11 10 10 10 11 10
3 4 7 10 11 8 18 19 17 11 6 8 13 22 18 19 16 14 15 15 15 10 19 17 15 13 14 10 9 10 11 5 7 9 11 11 12 12 11 11 12 11 10 11
7 5 8 13 18 19 23 23 20 18 17 14 15 22 19 18 10 8 12 15 15 14 21 20 20 13 11 7 8 8 8 4 6 11 14 14 12 11 12 12 12 12 11 10
1 3 6 18 17 14 16 17 17 18 18 19 20 20 12 5 8 11 14 17 17 11 14 22 21 18 12 7 10 5 1 4 6 5 8 14 14 12 11 13 13 12 9 9
4 2 3 6 5 11 8 4 2 2 4 4 8 13 8 14 14 14 19 20 16 12 12 19 21 20 16 7 5 4 6 7 8 10 9 11 13 13 12 11 12 11 11 10
6 4 3 5 6 4 5 3 3 5 10 14 15 14 9 13 15 14 18 8 14 18 20 18 17 18 19 9 6 4 6 2 7 10 10 11 14 14 13 14 12 10 10 11
10 5 4 3 3 7 9 4 2 2 16 12 6 12 18 17 15 13 8 15 19 18 18 17 17 20 16 14 9 3 5 3 7 8 12 14 16 16 15 14 12 10 11 9
5 4 4 2 4 6 5 2 4 6 12 4 11 15 17 16 15 13 15 19 22 20 16 15 16 17 7 6 8 6 6 6 4 12 14 14 16 15 14 14 12 6 9 9
2 3 10 8 6 8 4 1 4 2 8 11 15 14 19 15 14 19 20 19 21 19 18 16 13 12 7 5 3 6 3 4 14 14 14 15 14 14 13 11 10 10 10 10
4 2 3 3 4 8 2 4 4 4 12 14 14 18 18 15 19 21 20 21 20 19 18 18 14 11 5 4 1 1 6 7 16 17 16 14 13 11 10 13 10 11 11 11
3 5 3 6 7 3 2 10 14 13 10 15 17 15 12 18 19 20 20 19 18 18 16 15 13 9 8 7 0 8 10 13 16 14 14 12 13 12 12 12 11 10 10 10
5 2 4 3 3 10 12 16 9 7 10 15 16 12 18 17 17 18 19 16 16 15 14 13 12 8 11 10 11 12 11 14 16 14 13 11 12 12 11 8 8 9 9 8
7 3 5 7 13 12 14 8 8 12 13 12 10 17 18 16 17 18 18 17 16 17 15 13 13 6 5 4 7 7 13 15 14 13 12 10 10 11 10 7 4 5 5 9
3 6 5 7 12 15 13 10 9 11 13 9 14 16 14 14 16 18 17 15 16 16 13 10 6 6 11 6 7 6 12 16 15 12 9 8 8 8 8 7 6 15 9 9
Wind_Direction
353 73 205 245 213 238 272 286 291 274 327 341 288 302 308 282 288 288 294 304 307 300 301 269 251 245 249 247 215 209 205 229 204 224 196 209 209 211 198 207 213 203 187 193
14 283 215 252 273 208 265 319 319 294 336 339 314 297 302 269 265 264 280 296 298 302 311 314 302 247 228 237 229 223 218 223 211 191 220 242 207 247 219 212 200 199 188 190
163 251 314 295 4 40 353 136 300 291 320 275 318 294 299 310 316 288 273 275 303 285 300 306 311 303 262 228 232 233 229 221 209 196 171 80 37 78 132 191 198 202 185 188
225 265 259 330 282 124 337 3 315 322 356 301 89 291 288 290 277 257 279 281 287 306 315 312 314 312 300 280 232 229 230 226 228 212 208 204 217 220 219 228 215 188 200 202
243 207 306 265 192 168 226 234 273 271 265 275 193 252 284 16 282 272 262 271 316 316 303 308 308 307 299 295 282 232 232 235 217 203 209 204 215 218 145 120 169 188 205 212
252 234 145 210 188 226 7 10 340 31 23 311 227 198 291 289 276 313 347 307 295 285 287 299 295 294 300 310 300 287 226 224 223 197 208 208 212 187 156 149 191 203 199 196
314 226 128 102 34 352 75 54 330 340 4 238 296 320 257 284 307 214 278 286 277 269 276 292 297 304 312 314 311 294 276 251 226 196 202 203 210 199 193 190 195 176 175 180
146 326 173 205 206 213 239 154 162 248 234 281 296 248 254 203 243 250 257 273 287 296 268 263 281 284 285 295 304 308 266 263 223 229 206 209 198 200 200 198 190 190 183 178
72 278 315 315 128 106 249 186 195 189 237 285 231 281 293 217 267 268 251 258 271 284 294 279 277 278 274 277 289 293 296 264 245 211 222 205 192 186 185 183 173 171 150 150
195 272 253 273 360 279 176 180 290 356 276 244 253 253 246 268 267 282 288 283 290 297 302 298 286 280 268 264 278 280 263 267 248 232 214 205 193 181 170 159 169 164 148 141
149 157 278 284 210 210 331 307 121 194 205 238 283 252 218 241 243 254 272 277 282 285 284 287 293 283 271 264 269 270 272 259 241 219 206 186 174 166 158 164 162 161 145 152
180 162 256 251 280 273 200 218 166 192 251 237 231 260 242 263 285 278 270 273 275 271 273 273 280 282 279 269 264 265 271 263 233 213 193 184 158 150 154 161 153 148 151 158
183 346 320 316 11 5 225 219 196 229 210 231 236 267 296 313 305 296 287 278 263 277 290 308 294 284 271 267 261 266 275 258 223 190 165 155 158 156 160 153 148 149 153 148
132 177 191 255 263 279 285 275 263 243 239 259 233 276 270 285 287 304 302 295 269 303 329 312 296 275 260 246 254 272 282 246 195 173 156 163 161 160 157 150 149 150 147 147
137 225 232 258 269 274 275 277 271 260 253 248 267 264 283 284 291 313 338 341 326 324 340 322 316 291 281 306 285 261 276 231 172 164 163 165 150 144 140 142 144 139 142 151
178 264 314 289 275 262 268 264 256 255 262 264 262 268 268 322 321 335 330 315 311 334 325 313 313 318 307 310 321 245 189 143 132 129 164 144 142 133 139 141 135 138 131 130
180 262 259 258 327 313 277 254 272 319 261 297 282 276 338 323 327 328 316 301 302 325 311 298 305 308 315 298 357 265 194 130 129 130 143 138 140 139 143 135 133 131 129 121
197 194 238 275 357 267 246 208 227 271 287 287 261 285 319 308 309 307 295 300 314 313 305 304 301 296 315 298 304 8 271 124 133 130 140 151 139 133 137 131 122 124 127 129
186 161 257 246 226 290 285 204 208 29 296 288 335 329 309 309 303 297 295 313 303 297 292 291 293 293 297 293 318 254 274 315 61 137 156 156 141 132 126 122 131 129 117 114
155 208 233 281 255 254 247 161 85 322 280 130 319 310 307 306 297 300 314 301 296 294 287 278 276 286 262 264 235 201 178 203 153 183 163 147 130 129 133 126 126 113 117 112
237 239 253 259 259 271 245 92 57 270 297 319 329 317 303 292 282 302 297 291 285 289 297 289 278 288 291 345 241 160 44 203 179 163 143 129 123 121 125 112 116 117 111 105
210 176 254 227 254 280 171 8 228 259 310 307 301 303 288 289 295 293 294 292 295 300 304 305 302 296 299 277 280 340 225 188 156 143 128 122 127 122 115 114 117 115 114 111
287 198 239 204 233 245 183 271 277 283 282 291 299 296 301 299 291 291 293 291 297 294 295 301 296 325 329 312 178 274 249 172 127 119 114 116 116 117 120 121 118 115 118 130
282 195 241 328 259 303 299 284 264 272 291 290 298 302 307 295 292 296 296 298 294 297 295 292 296 273 291 278 265 178 144 134 116 113 111 112 112 117 116 115 123 125 131 137
251 270 253 249 271 298 273 271 283 293 292 286 305 311 302 300 303 301 299 297 295 291 289 286 282 273 281 57 112 141 130 112 110 107 110 109 109 109 95 64 75 133 138 160
207 222 258 289 314 290 284 274 286 297 305 319 317 313 313 309 301 299 293 297 289 282 276 269 278 340 9 14 111 111 125 124 120 113 122 121 114 110 116 122 92 44 47 97